Weather History for Warrensburg, MO

Change the Weather History Date:

Friday, October 25, 2013

  Actual Average (KSZL) Record (KSZL)
Temperature  
Mean Temperature 39 °F -  
Max Temperature 55 °F 62 °F 85 °F (2011)
Min Temperature 23 °F 45 °F 24 °F (2013)
Degree Days  
Heating Degree Days 26    
Moisture  
Dew Point 25 °F    
Average Humidity 60    
Maximum Humidity 100    
Minimum Humidity 26    
Precipitation  
Precipitation 0.00 in - - ()
Sea Level Pressure  
Sea Level Pressure 30.37 in    
Wind  
Wind Speed 3 mph (South)    
Max Wind Speed 14 mph    
Max Gust Speed 18 mph    
Visibility 10 miles    
Events      
Averages and records for this station are not official NWS values.
T = Trace of Precipitation, MM = Missing Value Source: NWS Daily Summary

Daily Weather History Graph

Daily Weather History Graph

Search for Another Location

Airport:

Trip Planner

Search our weather history database for the weather conditions in past years. The results will help you decide how hot, cold, wet, or windy it might be!

Date:

Astronomy

Oct. 25, 2013 Rise Set
Actual Time 7:35 AM CDT 6:22 PM CDT
Civil Twilight 7:07 AM CDT 6:50 PM CDT
Nautical Twilight 6:36 AM CDT 7:21 PM CDT
Astronomical Twilight 6:05 AM CDT 7:52 PM CDT
Moon 11:44 PM CDT 1:14 PM CDT
Length of Visible Light 11h 42m
Length of Day
10h 47m
Waning Gibbous, 62% of the Moon is Illuminated
Oct 25
Waning Gibbous
Oct 26
Last Quarter
Nov 3
New
Nov 9
First Quarter
Nov 17
Full

Hourly Weather History & Observations

Time (CDT) Temp. Windchill Dew Point Humidity Pressure Visibility Wind Dir Wind Speed Gust Speed Precip Events Conditions
12:15 AM 30.2 °F - 26.6 °F 86% 30.44 in 10.0 mi Calm Calm - N/A   Clear
12:35 AM 30.2 °F - 26.6 °F 86% 30.44 in 10.0 mi Calm Calm - N/A   Clear
12:55 AM 30.2 °F - 26.6 °F 86% 30.45 in 10.0 mi Calm Calm - N/A   Clear
1:15 AM 28.4 °F - 26.6 °F 93% 30.45 in 10.0 mi Calm Calm - N/A   Clear
1:35 AM 28.4 °F - 26.6 °F 93% 30.45 in 10.0 mi Calm Calm - N/A   Clear
1:55 AM 28.4 °F - 26.6 °F 93% 30.46 in 10.0 mi Calm Calm - N/A   Clear
2:15 AM 26.6 °F - 24.8 °F 93% 30.46 in 10.0 mi Calm Calm - N/A   Clear
2:35 AM 26.6 °F - 24.8 °F 93% 30.46 in 10.0 mi Calm Calm - N/A   Clear
2:55 AM 26.6 °F - 26.6 °F 100% 30.46 in 10.0 mi Calm Calm - N/A   Clear
3:15 AM 26.6 °F - 24.8 °F 93% 30.46 in 10.0 mi Calm Calm - N/A   Clear
3:35 AM 26.6 °F - 24.8 °F 93% 30.46 in 10.0 mi Calm Calm - N/A   Clear
3:55 AM 26.6 °F 22.6 °F 24.8 °F 93% 30.46 in 10.0 mi SSE 3.5 mph - N/A   Clear
4:15 AM 26.6 °F - 24.8 °F 93% 30.46 in 10.0 mi Calm Calm - N/A   Clear
4:35 AM 26.6 °F - 23.0 °F 86% 30.47 in 10.0 mi Calm Calm - N/A   Clear
4:55 AM 26.6 °F - 23.0 °F 86% 30.47 in 10.0 mi Calm Calm - N/A   Clear
5:15 AM 26.6 °F 22.6 °F 23.0 °F 86% 30.47 in 10.0 mi South 3.5 mph - N/A   Clear
5:35 AM 26.6 °F 22.6 °F 23.0 °F 86% 30.48 in 10.0 mi SSE 3.5 mph - N/A   Clear
5:55 AM 24.8 °F - 23.0 °F 93% 30.48 in 10.0 mi Calm Calm - N/A   Clear
6:15 AM 24.8 °F 20.5 °F 23.0 °F 93% 30.48 in 10.0 mi SSE 3.5 mph - N/A   Clear
6:35 AM 23.0 °F - 21.2 °F 93% 30.48 in 10.0 mi Calm Calm - N/A   Clear
6:55 AM 24.8 °F - 23.0 °F 93% 30.48 in 10.0 mi Calm Calm - N/A   Clear
7:15 AM 24.8 °F - 23.0 °F 93% 30.48 in 10.0 mi Calm Calm - N/A   Clear
7:35 AM 24.8 °F - 21.2 °F 86% 30.48 in 10.0 mi Calm Calm - N/A   Clear
7:55 AM 24.8 °F - 23.0 °F 93% 30.48 in 10.0 mi Calm Calm - N/A   Clear
8:15 AM 26.6 °F 22.6 °F 24.8 °F 93% 30.48 in 10.0 mi SSE 3.5 mph - N/A   Clear
8:35 AM 30.2 °F 26.7 °F 28.4 °F 93% 30.48 in 10.0 mi South 3.5 mph - N/A   Clear
8:55 AM 32.0 °F 28.7 °F 28.4 °F 87% 30.49 in 10.0 mi South 3.5 mph - N/A   Clear
9:15 AM 35.6 °F - 30.2 °F 81% 30.49 in 10.0 mi Calm Calm - N/A   Clear
9:35 AM 37.4 °F 32.8 °F 32.0 °F 81% 30.49 in 10.0 mi South 5.8 mph - N/A   Clear
9:55 AM 41.0 °F 35.8 °F 30.2 °F 65% 30.49 in 10.0 mi South 8.1 mph - N/A   Clear
10:15 AM 42.8 °F 38.6 °F 30.2 °F 61% 30.49 in 10.0 mi South 6.9 mph - N/A   Clear
10:35 AM 46.4 °F 42.4 °F 30.2 °F 53% 30.48 in 10.0 mi SSE 8.1 mph - N/A   Clear
10:55 AM 46.4 °F 42.4 °F 28.4 °F 50% 30.47 in 10.0 mi SSE 8.1 mph - N/A   Clear
11:15 AM 50.0 °F - 24.8 °F 37% 30.46 in 10.0 mi South 9.2 mph - N/A   Clear
11:35 AM 50.0 °F - 23.0 °F 35% 30.46 in 10.0 mi South 12.7 mph 16.1 mph N/A   Clear
11:55 AM 50.0 °F - 23.0 °F 35% 30.45 in 10.0 mi South 8.1 mph - N/A   Clear
12:15 PM 51.8 °F - 24.8 °F 35% 30.45 in 10.0 mi SSE 8.1 mph 18.4 mph N/A   Clear
12:35 PM 51.8 °F - 23.0 °F 33% 30.43 in 10.0 mi SSE 8.1 mph - N/A   Clear
12:55 PM 53.6 °F - 24.8 °F 33% 30.42 in 10.0 mi SSW 9.2 mph 16.1 mph N/A   Clear
1:15 PM 53.6 °F - 23.0 °F 30% 30.41 in 10.0 mi South 12.7 mph 16.1 mph N/A   Clear
1:35 PM 53.6 °F - 23.0 °F 30% 30.39 in 10.0 mi South 9.2 mph - N/A   Clear
1:55 PM 53.6 °F - 21.2 °F 28% 30.38 in 10.0 mi South 11.5 mph - N/A   Clear
2:15 PM 55.4 °F - 23.0 °F 29% 30.37 in 10.0 mi South 11.5 mph 16.1 mph N/A   Clear
2:35 PM 55.4 °F - 23.0 °F 29% 30.36 in 10.0 mi SSW 10.4 mph 17.3 mph N/A   Clear
2:55 PM 55.4 °F - 23.0 °F 29% 30.34 in 10.0 mi South 13.8 mph - N/A   Clear
3:15 PM 55.4 °F - 21.2 °F 26% 30.33 in 10.0 mi South 9.2 mph 18.4 mph N/A   Clear
3:35 PM 55.4 °F - 21.2 °F 26% 30.33 in 10.0 mi SSW 8.1 mph 17.3 mph N/A   Clear
3:55 PM 55.4 °F - 21.2 °F 26% 30.32 in 10.0 mi South 9.2 mph - N/A   Clear
4:15 PM 55.4 °F - 23.0 °F 29% 30.31 in 10.0 mi South 10.4 mph - N/A   Clear
4:35 PM 55.4 °F - 21.2 °F 26% 30.30 in 10.0 mi South 8.1 mph - N/A   Clear
4:55 PM 55.4 °F - 23.0 °F 29% 30.29 in 10.0 mi South 8.1 mph - N/A   Clear
5:15 PM 53.6 °F - 23.0 °F 30% 30.28 in 10.0 mi South 8.1 mph - N/A   Clear
5:35 PM 53.6 °F - 23.0 °F 30% 30.26 in 10.0 mi SSE 8.1 mph - N/A   Clear
5:55 PM 51.8 °F - 23.0 °F 33% 30.25 in 10.0 mi South 6.9 mph - N/A   Clear
6:15 PM 50.0 °F - 23.0 °F 35% 30.25 in 10.0 mi South 6.9 mph - N/A   Clear
6:35 PM 50.0 °F - 23.0 °F 35% 30.25 in 10.0 mi South 5.8 mph - N/A   Clear
6:55 PM 46.4 °F 44.3 °F 24.8 °F 43% 30.25 in 10.0 mi SSE 4.6 mph - N/A   Clear
7:15 PM 46.4 °F 44.3 °F 26.6 °F 46% 30.24 in 10.0 mi SSE 4.6 mph - N/A   Clear
7:35 PM 44.6 °F 42.2 °F 24.8 °F 46% 30.23 in 10.0 mi SSE 4.6 mph - N/A   Clear
7:55 PM 44.6 °F 43.1 °F 26.6 °F 49% 30.23 in 10.0 mi SSE 3.5 mph - N/A   Clear
8:15 PM 44.6 °F 41.4 °F 26.6 °F 49% 30.22 in 10.0 mi SSE 5.8 mph - N/A   Clear
8:35 PM 44.6 °F 41.4 °F 26.6 °F 49% 30.21 in 10.0 mi South 5.8 mph - N/A   Clear
8:55 PM 44.6 °F 41.4 °F 26.6 °F 49% 30.21 in 10.0 mi South 5.8 mph - N/A   Clear
9:15 PM 44.6 °F 40.7 °F 26.6 °F 49% 30.20 in 10.0 mi South 6.9 mph - N/A   Clear
9:35 PM 44.6 °F 40.7 °F 26.6 °F 49% 30.20 in 10.0 mi South 6.9 mph - N/A   Clear
9:55 PM 44.6 °F 40.7 °F 26.6 °F 49% 30.20 in 10.0 mi South 6.9 mph - N/A   Clear
10:15 PM 44.6 °F 40.7 °F 26.6 °F 49% 30.20 in 10.0 mi South 6.9 mph - N/A   Clear
10:35 PM 44.6 °F 40.2 °F 28.4 °F 53% 30.20 in 10.0 mi South 8.1 mph - N/A   Clear
10:55 PM 44.6 °F 39.7 °F 28.4 °F 53% 30.19 in 10.0 mi South 9.2 mph - N/A   Clear
11:15 PM 44.6 °F 40.2 °F 28.4 °F 53% 30.19 in 10.0 mi South 8.1 mph - N/A   Scattered Clouds
11:35 PM 44.6 °F 40.2 °F 28.4 °F 53% 30.18 in 10.0 mi South 8.1 mph - N/A   Mostly Cloudy
11:55 PM 44.6 °F 40.2 °F 28.4 °F 53% 30.17 in 10.0 mi South 8.1 mph - N/A   Overcast